CST,Max TemperatureF,Mean TemperatureF,Min TemperatureF,Max Dew PointF,MeanDew PointF,Min DewpointF,Max Humidity, Mean Humidity, Min Humidity, Max Sea Level PressureIn, Mean Sea Level PressureIn, Min Sea Level PressureIn, Max VisibilityMiles, Mean VisibilityMiles, Min VisibilityMiles, Max Wind SpeedMPH, Mean Wind SpeedMPH, Max Gust SpeedMPH,PrecipitationIn, CloudCover, Events, WindDirDegrees
2012-12-1,53,44,35,52,41,34,94,90,81,30.12,29.93,29.83,5,2,0,14,8,17,0.03,8,Fog-Rain,144
2012-12-2,53,48,44,50,45,41,94,86,67,30.02,29.94,29.83,7,3,0,13,5,,0.00,5,Fog,262
2012-12-3,64,54,44,59,49,36,94,84,66,29.97,29.81,29.68,10,5,0,25,11,31,0.00,6,Fog-Rain,182
2012-12-4,53,42,30,34,29,19,81,60,41,30.32,30.11,29.95,10,10,10,22,8,28,0.00,0,Snow,294
2012-12-5,37,30,23,23,17,14,69,58,44,30.41,30.33,30.19,10,10,7,15,7,17,0.00,0,,97
2012-12-6,46,40,35,36,33,32,87,72,61,29.98,29.90,29.85,10,10,10,15,11,18,0.00,4,,207
2012-12-7,42,38,33,32,27,21,93,68,42,29.97,29.93,29.90,10,10,10,10,5,,0.00,6,Snow,15
2012-12-8,37,32,28,30,27,25,87,77,65,30.06,30.00,29.92,10,10,7,12,6,,0.00,4,Snow,48
2012-12-9,35,34,32,32,32,30,100,92,87,30.03,29.84,29.70,10,3,0,17,8,21,0.16,8,Fog-Snow,83
2012-12-10,32,28,21,30,27,18,100,90,86,29.92,29.82,29.70,10,8,1,13,8,,0.00,8,Snow,288
2012-12-11,32,23,14,27,20,12,93,79,64,30.06,29.93,29.87,10,9,2,13,6,17,0.00,6,Snow,208
2012-12-12,42,33,24,27,24,19,86,68,49,30.15,30.10,30.06,10,10,10,14,8,21,0.00,1,,168
2012-12-13,42,37,32,27,23,21,69,58,45,30.14,30.08,30.02,10,10,10,17,9,24,0.00,0,,195
2012-12-14,46,38,30,34,27,23,80,66,50,30.14,30.05,29.91,10,10,10,14,6,18,0.00,1,Snow,126
2012-12-15,44,42,39,43,40,34,93,89,70,29.90,29.63,29.50,10,4,0,17,11,24,63.41,8,Fog-Rain,147
2012-12-16,44,38,32,43,35,32,100,90,87,29.72,29.62,29.50,10,6,0,17,8,25,0.01,8,Fog-Rain,271
2012-12-17,32,30,28,32,27,25,100,89,80,29.73,29.70,29.67,10,6,1,9,5,,0.00,8,,325
2012-12-18,32,31,30,32,29,27,100,92,86,29.85,29.67,29.55,7,4,1,12,6,16,0.00,8,Snow,97
2012-12-19,33,32,30,32,31,28,100,95,87,30.00,29.94,29.78,7,3,0,15,4,21,0.07,8,Snow,99
2012-12-20,33,30,28,32,29,21,100,91,74,29.77,29.48,29.31,5,2,0,31,20,44,5.55,8,Snow,351
2012-12-21,28,20,12,21,12,7,85,70,54,30.19,30.02,29.71,10,10,10,25,14,34,0.00,1,Snow,309
2012-12-22,26,16,6,16,10,1,86,76,59,30.17,30.05,29.92,10,10,10,9,4,,0.00,0,,157
2012-12-23,26,19,12,21,17,9,93,84,73,30.02,29.98,29.91,10,9,2,12,6,17,0.00,5,,36
2012-12-24,26,20,15,23,20,12,93,82,68,30.12,29.96,29.88,10,9,3,12,6,,0.00,7,,19
2012-12-25,21,14,8,10,7,3,86,73,58,30.33,30.27,30.13,10,10,10,15,7,18,0.00,1,,352
2012-12-26,28,21,14,18,14,9,86,75,64,30.24,30.16,30.11,10,10,10,13,10,18,0.00,6,,358
2012-12-27,28,20,12,19,16,10,92,74,64,30.19,30.14,30.08,10,10,10,10,6,,0.00,8,,27
2012-12-28,30,26,23,27,24,19,93,87,74,30.07,29.97,29.89,10,4,1,8,4,,0.00,8,Snow,71
2012-12-29,24,16,8,23,17,5,93,83,74,30.16,30.01,29.88,10,10,2,17,9,22,0.00,6,Snow,291
2012-12-30,32,18,5,23,11,1,86,79,69,30.24,30.13,29.93,10,6,0,18,5,23,0.00,2,Fog-Snow,174
2012-12-31,33,20,8,25,14,3,86,75,63,30.15,30.03,29.92,10,10,7,18,11,25,0.00,1,,297